This is the latest recevied weather packets stored in our database for station/object KB0BS-13. If no packets are shown the sender has not sent any weather packets the latest 10 day(s).
| Time | Temp. | Humidity | Pressure | Rain* | Wind** | Luminosity | Snow |
|---|---|---|---|---|---|---|---|
| 1777974001 | 1.67° C | 88% | 1002 hPa | 0 mm | - | 0 W/m² | - |
| 1777973697 | 1.67° C | 87% | 1002 hPa | 0 mm | - | 0 W/m² | - |
| 1777973395 | 1.11° C | 88% | 1001.9 hPa | 0 mm | - | 0 W/m² | - |
| 1777973092 | 1.67° C | 88% | 1001.7 hPa | 0 mm | - | 0 W/m² | - |
| 1777972790 | 1.67° C | 87% | 1001.8 hPa | 0 mm | - | 0 W/m² | - |
| 1777972487 | 2.22° C | 87% | 1001.7 hPa | 0 mm | - | 0 W/m² | - |
| 1777972185 | 2.78° C | 85% | 1001.7 hPa | 0 mm | - | 0 W/m² | - |
| 1777971883 | 2.78° C | 84% | 1001.6 hPa | 0 mm | - | 0 W/m² | - |
| 1777971580 | 2.78° C | 83% | 1001.6 hPa | 0 mm | - | 0 W/m² | - |
| 1777971278 | 2.78° C | 84% | 1001.5 hPa | 0 mm | - | 0 W/m² | - |
| 1777970976 | 3.33° C | 83% | 1001.7 hPa | 0 mm | - | 0 W/m² | - |
| 1777970674 | 3.33° C | 82% | 1001.6 hPa | 0 mm | - | 0 W/m² | - |
| 1777970371 | 3.33° C | 83% | 1001.4 hPa | 0 mm | - | 0 W/m² | - |
| 1777970069 | 3.33° C | 83% | 1001.5 hPa | 0 mm | - | 0 W/m² | - |
| 1777969765 | 3.33° C | 83% | 1001.5 hPa | 0 mm | - | 0 W/m² | - |
| 1777969460 | 3.33° C | 82% | 1001.4 hPa | 0 mm | - | 0 W/m² | - |
| 1777969158 | 3.33° C | 83% | 1001.5 hPa | 0 mm | - | 0 W/m² | - |
| 1777968855 | 3.33° C | 83% | 1001.4 hPa | 0 mm | - | 0 W/m² | - |
| 1777968551 | 3.33° C | 83% | 1001.4 hPa | 0 mm | - | 0 W/m² | - |
| 1777968247 | 3.33° C | 84% | 1001.6 hPa | 0 mm | - | 0 W/m² | - |
| 1777967943 | 3.89° C | 84% | 1001.3 hPa | 0 mm | - | 0 W/m² | - |
| 1777967640 | 3.89° C | 82% | 1001.3 hPa | 0 mm | - | 0 W/m² | - |
| 1777967337 | 4.44° C | 81% | 1001.3 hPa | 0 mm | - | 0 W/m² | - |
| 1777967034 | 4.44° C | 82% | 1001.2 hPa | 0 mm | - | 0 W/m² | - |
| 1777966731 | 5° C | 81% | 1001.2 hPa | 0 mm | - | 0 W/m² | - |
* Rain latest hour (hover to see other rain measurements)
** Current wind speed in m/s (hover to see current wind gust speed)